This is the latest recevied weather packets stored in our database for station/object K9APR. If no packets are shown the sender has not sent any weather packets the latest 10 day(s).
| Time | Temp. | Humidity | Pressure | Rain* | Wind** | Luminosity | Snow |
|---|---|---|---|---|---|---|---|
| 1778125822 | 6.11° C | 85% | 1015.9 hPa | 0 mm | - | - | - |
| 1778125284 | 6.67° C | 85% | 1015.9 hPa | 0 mm | - | - | - |
| 1778124742 | 6.67° C | 86% | 1016 hPa | 0 mm | - | - | - |
| 1778124203 | 6.11° C | 85% | 1015.9 hPa | 0 mm | - | - | - |
| 1778123664 | 6.11° C | 84% | 1015.9 hPa | 0 mm | - | - | - |
| 1778123122 | 6.11° C | 84% | 1015.9 hPa | 0 mm | - | - | - |
| 1778122582 | 6.67° C | 84% | 1016 hPa | 0 mm | - | - | - |
| 1778122044 | 6.67° C | 84% | 1016 hPa | 0 mm | - | - | - |
| 1778121502 | 7.22° C | 84% | 1015.8 hPa | 0 mm | - | - | - |
| 1778120963 | 7.22° C | 83% | 1016 hPa | 0 mm | - | - | - |
| 1778120421 | 7.22° C | 82% | 1015.9 hPa | 0 mm | - | - | - |
| 1778119882 | 7.22° C | 81% | 1015.8 hPa | 0 mm | - | - | - |
| 1778119640 | 7.78° C | 80% | 1015.8 hPa | 0 mm | - | - | - |
| 1778119344 | 7.78° C | 80% | 1015.8 hPa | 0 mm | - | - | - |
| 1778118803 | 7.78° C | 79% | 1015.7 hPa | 0 mm | - | - | - |
| 1778118264 | 8.33° C | 78% | 1015.6 hPa | 0 mm | - | - | - |
| 1778117722 | 8.89° C | 77% | 1015.5 hPa | 0 mm | - | - | - |
| 1778117182 | 9.44° C | 77% | 1015.3 hPa | 0 mm | - | - | - |
| 1778116643 | 9.44° C | 74% | 1015.2 hPa | 0 mm | - | - | - |
| 1778116102 | 10° C | 73% | 1015.1 hPa | 0 mm | - | - | - |
| 1778115563 | 10.56° C | 70% | 1015.1 hPa | 0 mm | - | - | - |
| 1778115023 | 10.56° C | 70% | 1015.1 hPa | 0 mm | - | - | - |
| 1778114483 | 11.11° C | 69% | 1015.1 hPa | 0 mm | - | - | - |
| 1778113943 | 11.11° C | 68% | 1014.9 hPa | 0 mm | - | - | - |
| 1778113404 | 11.11° C | 68% | 1014.8 hPa | 0 mm | - | - | - |
* Rain latest hour (hover to see other rain measurements)
** Current wind speed in m/s (hover to see current wind gust speed)